SBI275 UUEE-LGAV

Flight info

Callsign SBI275
Flight time 3h 15m
Altitude 36000
Route SOTOG3H SOTOG N181 NUNTA/N0446F360 DCT LAPKA DCT UPAMA DCT NIKTI/N0450F370 UY505 PEREN UV652 SKP UM749 ROPOX
Aircraft A321/M-SDE3FGHIRWY/LB1

Departure

Time 2026-05-04 06:03
Airport Sheremetyevo International Airport (UUEE)

Arrival

Time 2026-05-04 09:18
Airport Athens Eleftherios Venizelos International Airport (LGAV)
Time Latitude Longitude Altitude Speed Heading
2026-05-04 05:37 55.97798 37.40664 633 ft 0 kts 345°
2026-05-04 05:47 55.97724 37.40674 635 ft 1 kts 75°
2026-05-04 05:49 55.97725 37.40676 635 ft 0 kts 75°
2026-05-04 05:52 55.97725 37.40681 634 ft 2 kts 81°
2026-05-04 05:52 55.97717 37.40685 634 ft 1 kts 167°
2026-05-04 05:52 55.97714 37.40672 635 ft 1 kts 251°
2026-05-04 05:52 55.97714 37.40627 636 ft 6 kts 256°
2026-05-04 05:53 55.97657 37.40601 632 ft 12 kts 170°
2026-05-04 05:54 55.97701 37.41476 632 ft 14 kts 74°
2026-05-04 05:55 55.97711 37.41637 630 ft 13 kts 81°
2026-05-04 05:55 55.97732 37.41789 635 ft 13 kts 75°
2026-05-04 05:55 55.97755 37.41941 632 ft 13 kts 75°
2026-05-04 05:55 55.97785 37.42093 639 ft 13 kts 64°
2026-05-04 05:56 55.97816 37.42248 630 ft 13 kts 75°
2026-05-04 05:56 55.97839 37.42411 636 ft 14 kts 76°
2026-05-04 05:56 55.97865 37.42576 635 ft 14 kts 74°
2026-05-04 05:56 55.97891 37.42745 630 ft 14 kts 75°
2026-05-04 05:57 55.97917 37.42917 632 ft 14 kts 75°
2026-05-04 05:57 55.97942 37.43091 633 ft 15 kts 75°
2026-05-04 05:57 55.97968 37.43268 634 ft 15 kts 75°
2026-05-04 05:57 55.97996 37.43446 635 ft 15 kts 75°
2026-05-04 05:58 55.98023 37.43629 635 ft 15 kts 75°
2026-05-04 05:58 55.98048 37.43801 632 ft 11 kts 75°
2026-05-04 05:58 55.98055 37.43931 630 ft 11 kts 109°
2026-05-04 05:58 55.97994 37.43997 630 ft 11 kts 163°
2026-05-04 05:59 55.97920 37.44030 635 ft 11 kts 166°
2026-05-04 05:59 55.97843 37.44066 634 ft 11 kts 163°
2026-05-04 05:59 55.97764 37.44106 633 ft 13 kts 165°
2026-05-04 05:59 55.97678 37.44147 634 ft 9 kts 165°
2026-05-04 06:00 55.97667 37.44152 630 ft 0 kts 165°
2026-05-04 06:00 55.97656 37.44157 633 ft 5 kts 165°
2026-05-04 06:00 55.97595 37.44186 631 ft 11 kts 165°
2026-05-04 06:00 55.97536 37.44125 631 ft 14 kts 250°
2026-05-04 06:01 55.97531 37.44099 633 ft 0 kts 253°
2026-05-04 06:01 55.97531 37.44095 633 ft 7 kts 253°
2026-05-04 06:03 55.95655 37.31394 2249 ft 214 kts 256°
2026-05-04 06:03 55.95253 37.28724 2399 ft 239 kts 256°
2026-05-04 06:05 55.91949 37.07010 7572 ft 267 kts 258°
2026-05-04 06:05 55.92181 37.00569 8961 ft 267 kts 296°
2026-05-04 06:05 55.93273 36.97901 9643 ft 270 kts 317°
2026-05-04 06:06 55.94780 36.95873 9945 ft 271 kts 323°
2026-05-04 06:06 55.96326 36.93962 10001 ft 269 kts 324°
2026-05-04 06:06 55.97997 36.92463 10004 ft 272 kts 341°
2026-05-04 06:06 55.99891 36.92126 10012 ft 278 kts
2026-05-04 06:07 56.01764 36.93116 10505 ft 290 kts 23°
2026-05-04 06:07 56.03501 36.95033 11150 ft 295 kts 28°
2026-05-04 06:07 56.05234 36.97041 11771 ft 298 kts 28°
2026-05-04 06:07 56.06986 36.99085 12384 ft 302 kts 28°
2026-05-04 06:08 56.08764 37.01163 13000 ft 306 kts 28°
2026-05-04 06:08 56.10457 37.03532 13572 ft 314 kts 41°
2026-05-04 06:08 56.11826 37.06664 13862 ft 326 kts 57°
2026-05-04 06:08 56.12726 37.10523 14041 ft 347 kts 73°
2026-05-04 06:09 56.13302 37.14780 14476 ft 353 kts 73°
2026-05-04 06:09 56.13899 37.19079 14835 ft 356 kts 73°
2026-05-04 06:11 56.05769 37.42430 16850 ft 368 kts 157°
2026-05-04 06:11 56.03435 37.44378 17373 ft 371 kts 157°
2026-05-04 06:13 55.92335 37.68237 20628 ft 389 kts 99°
2026-05-04 06:14 55.85083 37.94562 23216 ft 405 kts 130°
2026-05-04 06:14 55.83024 37.97972 23567 ft 406 kts 147°
2026-05-04 06:15 55.80508 38.00229 23859 ft 406 kts 164°
2026-05-04 06:15 55.77746 38.01135 24148 ft 403 kts 181°
2026-05-04 06:15 55.74971 38.00652 24426 ft 400 kts 198°
2026-05-04 06:15 55.72399 37.98889 24702 ft 395 kts 213°
2026-05-04 06:16 55.70225 37.96067 24989 ft 391 kts 228°
2026-05-04 06:16 55.68295 37.92657 25268 ft 392 kts 229°
2026-05-04 06:16 55.66363 37.89232 25562 ft 394 kts 228°
2026-05-04 06:16 55.64241 37.86089 25845 ft 400 kts 218°
2026-05-04 06:17 55.61845 37.83516 26129 ft 404 kts 214°
2026-05-04 06:17 55.59411 37.81002 26420 ft 406 kts 214°
2026-05-04 06:17 55.56972 37.78474 26729 ft 408 kts 214°
2026-05-04 06:17 55.54515 37.75933 27051 ft 409 kts 214°
2026-05-04 06:18 55.52051 37.73389 27350 ft 411 kts 214°
2026-05-04 06:18 55.49613 37.70836 27635 ft 412 kts 216°
2026-05-04 06:18 55.47198 37.68081 27926 ft 413 kts 218°
2026-05-04 06:20 55.30862 37.46612 29608 ft 430 kts 223°
2026-05-04 06:20 55.28540 37.43255 29752 ft 435 kts 223°
2026-05-04 06:21 55.19001 37.29511 30284 ft 451 kts 223°
2026-05-04 06:21 55.16595 37.26045 30407 ft 454 kts 223°
2026-05-04 06:22 55.14142 37.22518 30525 ft 457 kts 223°
2026-05-04 06:22 55.11680 37.18986 30718 ft 458 kts 223°
2026-05-04 06:25 54.80586 36.74955 33833 ft 452 kts 222°
2026-05-04 06:25 54.78145 36.71535 34056 ft 451 kts 222°
2026-05-04 06:26 54.75730 36.68155 34258 ft 450 kts 222°
2026-05-04 06:26 54.73318 36.64697 34431 ft 449 kts 226°
2026-05-04 06:26 54.71127 36.60875 34617 ft 447 kts 229°
2026-05-04 06:26 54.68954 36.56991 34799 ft 447 kts 229°
2026-05-04 06:27 54.60310 36.41687 35562 ft 445 kts 229°
2026-05-04 06:28 54.58148 36.37878 35745 ft 444 kts 229°
2026-05-04 06:28 54.55990 36.34080 35919 ft 444 kts 228°
2026-05-04 06:28 54.51663 36.26486 35974 ft 442 kts 228°
2026-05-04 06:29 54.47391 36.19002 35975 ft 441 kts 228°
2026-05-04 06:29 54.43072 36.11460 35974 ft 441 kts 228°
2026-05-04 06:30 54.38759 36.03953 35976 ft 441 kts 228°
2026-05-04 06:30 54.34461 35.96496 35962 ft 441 kts 227°
2026-05-04 06:31 54.30134 35.89008 35970 ft 442 kts 227°
2026-05-04 06:31 54.25798 35.81525 35976 ft 442 kts 227°
2026-05-04 06:33 54.07903 35.52605 35983 ft 445 kts 223°
2026-05-04 06:34 54.03261 35.45637 35985 ft 445 kts 224°
2026-05-04 06:34 53.98668 35.38660 36002 ft 445 kts 224°
2026-05-04 06:36 53.80379 35.10282 36006 ft 446 kts 224°
2026-05-04 06:37 53.75824 35.03240 36013 ft 446 kts 224°
2026-05-04 06:37 53.71232 34.96159 35997 ft 447 kts 224°
2026-05-04 06:38 53.66630 34.89093 36005 ft 447 kts 224°
2026-05-04 06:40 53.48163 34.60928 36014 ft 448 kts 224°
2026-05-04 06:40 53.43560 34.53954 36028 ft 448 kts 224°
2026-05-04 06:41 53.38918 34.46945 36017 ft 448 kts 224°
2026-05-04 06:41 53.34278 34.39974 36002 ft 448 kts 223°
2026-05-04 06:42 53.29636 34.33009 36019 ft 448 kts 223°
2026-05-04 06:44 53.11035 34.05340 36028 ft 449 kts 223°
2026-05-04 06:44 53.06365 33.98416 36032 ft 450 kts 223°
2026-05-04 06:45 53.01672 33.91508 36034 ft 450 kts 223°
2026-05-04 06:45 52.97039 33.84578 36037 ft 450 kts 225°
2026-05-04 06:46 52.92679 33.77151 36030 ft 450 kts 228°
2026-05-04 06:46 52.88427 33.69532 36038 ft 450 kts 228°
2026-05-04 06:48 52.70989 33.39802 36047 ft 450 kts 226°
2026-05-04 06:50 52.53471 33.10343 36040 ft 451 kts 226°
2026-05-04 06:51 52.49065 33.02991 36048 ft 451 kts 226°
2026-05-04 06:51 52.44683 32.95711 36047 ft 451 kts 226°
2026-05-04 06:52 52.40271 32.88389 36049 ft 451 kts 226°
2026-05-04 06:52 52.35851 32.81068 36044 ft 451 kts 225°
2026-05-04 06:53 52.31423 32.73771 36048 ft 452 kts 225°
2026-05-04 06:53 52.26996 32.66540 36054 ft 452 kts 224°
2026-05-04 06:54 52.22322 32.59687 36052 ft 452 kts 220°
2026-05-04 06:54 52.17477 32.53107 36050 ft 452 kts 219°
2026-05-04 06:55 52.12682 32.46568 36056 ft 452 kts 220°
2026-05-04 06:55 52.07885 32.39904 36055 ft 452 kts 220°
2026-05-04 06:57 51.88214 32.14444 36064 ft 453 kts 218°
2026-05-04 06:58 51.83302 32.08143 36066 ft 452 kts 218°
2026-05-04 06:58 51.78355 32.01826 36068 ft 452 kts 218°
2026-05-04 06:59 51.73411 31.95552 36074 ft 452 kts 218°
2026-05-04 06:59 51.68462 31.89295 36069 ft 451 kts 218°
2026-05-04 07:01 51.48733 31.64449 36069 ft 451 kts 218°
2026-05-04 07:02 51.43792 31.58263 36070 ft 451 kts 218°
2026-05-04 07:02 51.38816 31.52064 36066 ft 451 kts 217°
2026-05-04 07:03 51.33857 31.45915 36065 ft 451 kts 217°
2026-05-04 07:03 51.28925 31.39803 36069 ft 451 kts 217°
2026-05-04 07:04 51.23959 31.33664 36072 ft 451 kts 217°
2026-05-04 07:04 51.18985 31.27533 36073 ft 451 kts 217°
2026-05-04 07:05 51.14015 31.21425 36069 ft 451 kts 217°
2026-05-04 07:05 51.09038 31.15327 36074 ft 451 kts 217°
2026-05-04 07:06 51.01592 31.06231 36077 ft 451 kts 217°
2026-05-04 07:07 50.96603 31.00160 36081 ft 451 kts 217°
2026-05-04 07:09 50.74762 30.80998 36085 ft 450 kts 207°
2026-05-04 07:09 50.69235 30.76352 36095 ft 450 kts 207°
2026-05-04 07:10 50.64640 30.72513 36091 ft 449 kts 207°
2026-05-04 07:12 50.42541 30.54148 36091 ft 450 kts 207°
2026-05-04 07:12 50.36995 30.49572 36087 ft 450 kts 207°
2026-05-04 07:13 50.31452 30.45001 36087 ft 450 kts 207°
2026-05-04 07:13 50.25910 30.40432 36085 ft 450 kts 207°
2026-05-04 07:14 50.12012 30.29083 36087 ft 450 kts 207°
2026-05-04 07:15 50.06452 30.24560 36089 ft 450 kts 207°
2026-05-04 07:15 50.00917 30.20069 36088 ft 451 kts 207°
2026-05-04 07:16 49.95358 30.15560 36092 ft 451 kts 207°
2026-05-04 07:16 49.89782 30.11048 36092 ft 451 kts 207°
2026-05-04 07:17 49.84229 30.06572 36092 ft 451 kts 207°
2026-05-04 07:17 49.78654 30.02088 36094 ft 451 kts 206°
2026-05-04 07:18 49.73060 29.97614 36102 ft 452 kts 206°
2026-05-04 07:18 49.67506 29.93180 36103 ft 452 kts 206°
2026-05-04 07:19 49.61911 29.88715 36105 ft 452 kts 206°
2026-05-04 07:19 49.56321 29.84260 36109 ft 452 kts 206°
2026-05-04 07:20 49.50718 29.79824 36110 ft 452 kts 206°
2026-05-04 07:20 49.45157 29.75429 36109 ft 452 kts 206°
2026-05-04 07:22 49.22810 29.57748 36104 ft 451 kts 206°
2026-05-04 07:23 49.17224 29.53357 36101 ft 450 kts 206°
2026-05-04 07:23 49.11691 29.49012 36104 ft 450 kts 206°
2026-05-04 07:24 49.06101 29.44634 36099 ft 450 kts 206°
2026-05-04 07:24 49.00523 29.40295 36099 ft 450 kts 206°
2026-05-04 07:26 48.78235 29.23009 36102 ft 451 kts 206°
2026-05-04 07:27 48.72643 29.18702 36099 ft 450 kts 206°
2026-05-04 07:27 48.67055 29.14413 36103 ft 450 kts 206°
2026-05-04 07:28 48.61465 29.10136 36099 ft 451 kts 206°
2026-05-04 07:28 48.55865 29.05854 36101 ft 451 kts 206°
2026-05-04 07:29 48.50295 29.01610 36104 ft 451 kts 206°
2026-05-04 07:29 48.44686 28.97342 36104 ft 450 kts 206°
2026-05-04 07:30 48.39089 28.93104 36102 ft 450 kts 206°
2026-05-04 07:30 48.33488 28.88856 36098 ft 450 kts 206°
2026-05-04 07:31 48.27927 28.84644 36104 ft 450 kts 206°
2026-05-04 07:33 48.05710 28.67374 36088 ft 449 kts 210°
2026-05-04 07:33 48.00392 28.62566 36081 ft 449 kts 210°
2026-05-04 07:34 47.95017 28.57796 36078 ft 449 kts 210°
2026-05-04 07:34 47.89607 28.53115 36071 ft 449 kts 209°
2026-05-04 07:35 47.84191 28.48467 36071 ft 449 kts 209°
2026-05-04 07:35 47.78782 28.43807 36088 ft 449 kts 209°
2026-05-04 07:36 47.73381 28.39158 36082 ft 449 kts 209°
2026-05-04 07:38 47.51786 28.20693 36086 ft 449 kts 209°
2026-05-04 07:38 47.46362 28.16090 36087 ft 449 kts 209°
2026-05-04 07:39 47.40934 28.11497 36080 ft 449 kts 209°
2026-05-04 07:39 47.35538 28.06936 36094 ft 449 kts 209°
2026-05-04 07:40 47.30111 28.02362 36096 ft 448 kts 209°
2026-05-04 07:40 47.24704 27.97808 36105 ft 447 kts 209°
2026-05-04 07:41 47.19330 27.93291 36099 ft 447 kts 209°
2026-05-04 07:41 47.13931 27.88768 36104 ft 446 kts 209°
2026-05-04 07:42 47.08529 27.84298 36097 ft 445 kts 208°
2026-05-04 07:42 47.03054 27.80048 36098 ft 444 kts 206°
2026-05-04 07:43 46.97554 27.75899 36098 ft 444 kts 206°
2026-05-04 07:43 46.92090 27.71738 36095 ft 444 kts 207°
2026-05-04 07:44 46.86620 27.67535 36083 ft 444 kts 206°
2026-05-04 07:44 46.81142 27.63328 36082 ft 444 kts 207°
2026-05-04 07:45 46.75667 27.59156 36085 ft 444 kts 206°
2026-05-04 07:45 46.70187 27.54992 36084 ft 444 kts 206°
2026-05-04 07:46 46.64708 27.50832 36084 ft 444 kts 206°
2026-05-04 07:46 46.59263 27.46708 36084 ft 444 kts 206°
2026-05-04 07:47 46.53784 27.42568 36084 ft 444 kts 205°
2026-05-04 07:49 46.31881 27.26083 36078 ft 444 kts 206°
2026-05-04 07:49 46.26386 27.21989 36074 ft 443 kts 205°
2026-05-04 07:50 46.20895 27.17897 36076 ft 443 kts 206°
2026-05-04 07:50 46.15418 27.13826 36071 ft 443 kts 205°
2026-05-04 07:51 46.09928 27.09748 36075 ft 443 kts 206°
2026-05-04 07:51 46.04470 27.05705 36074 ft 444 kts 205°
2026-05-04 07:52 45.98971 27.01650 36077 ft 444 kts 205°
2026-05-04 07:52 45.93456 26.97585 36068 ft 445 kts 205°
2026-05-04 07:54 45.71366 26.81378 36060 ft 448 kts 204°
2026-05-04 07:55 45.65814 26.77327 36081 ft 447 kts 205°
2026-05-04 07:55 45.60277 26.73294 36088 ft 446 kts 205°
2026-05-04 07:56 45.55684 26.69961 36086 ft 445 kts 205°
2026-05-04 07:56 45.50159 26.65958 36089 ft 444 kts 205°
2026-05-04 07:57 45.44646 26.61969 36085 ft 444 kts 205°
2026-05-04 07:57 45.39128 26.57991 36080 ft 444 kts 205°
2026-05-04 07:58 45.33609 26.54026 36074 ft 444 kts 205°
2026-05-04 07:58 45.28121 26.50104 36071 ft 444 kts 204°
2026-05-04 07:59 45.22527 26.46285 36071 ft 444 kts 203°
2026-05-04 07:59 45.16933 26.42577 36065 ft 444 kts 203°
2026-05-04 08:00 45.11339 26.38849 36066 ft 444 kts 203°
2026-05-04 08:02 44.88946 26.23870 36062 ft 447 kts 203°
2026-05-04 08:02 44.83308 26.20126 36070 ft 447 kts 203°
2026-05-04 08:03 44.77710 26.16417 36084 ft 448 kts 203°
2026-05-04 08:03 44.72059 26.12680 36099 ft 448 kts 203°
2026-05-04 08:04 44.66396 26.08946 36109 ft 450 kts 203°
2026-05-04 08:04 44.60742 26.05227 36111 ft 450 kts 203°
2026-05-04 08:05 44.55055 26.01488 36115 ft 451 kts 203°
2026-05-04 08:05 44.49365 25.97753 36092 ft 452 kts 202°
2026-05-04 08:06 44.43667 25.94016 36090 ft 452 kts 202°
2026-05-04 08:06 44.38002 25.90309 36090 ft 452 kts 202°
2026-05-04 08:08 44.15215 25.75521 36110 ft 452 kts 202°
2026-05-04 08:11 43.89559 25.58993 36114 ft 452 kts 202°
2026-05-04 08:11 43.80991 25.53506 36119 ft 452 kts 202°
2026-05-04 08:12 43.75277 25.49863 36122 ft 452 kts 202°
2026-05-04 08:12 43.69551 25.46227 36129 ft 452 kts 202°
2026-05-04 08:13 43.63834 25.42601 36136 ft 452 kts 202°
2026-05-04 08:13 43.58152 25.38963 36133 ft 453 kts 203°
2026-05-04 08:14 43.52444 25.35255 36129 ft 453 kts 203°
2026-05-04 08:16 43.29519 25.20537 36140 ft 455 kts 203°
2026-05-04 08:16 43.23820 25.16894 36132 ft 455 kts 203°
2026-05-04 08:17 43.18064 25.13226 36126 ft 456 kts 203°
2026-05-04 08:17 43.12301 25.09560 36128 ft 456 kts 203°
2026-05-04 08:19 42.89150 24.94907 36116 ft 463 kts 202°
2026-05-04 08:20 42.83301 24.91226 36118 ft 464 kts 203°
2026-05-04 08:20 42.77429 24.87553 36114 ft 463 kts 204°
2026-05-04 08:21 42.71593 24.83899 36113 ft 461 kts 204°
2026-05-04 08:21 42.65800 24.80270 36114 ft 460 kts 204°
2026-05-04 08:22 42.59975 24.76628 36105 ft 461 kts 204°
2026-05-04 08:24 42.36625 24.62132 36097 ft 463 kts 204°
2026-05-04 08:24 42.30754 24.58510 36107 ft 463 kts 204°
2026-05-04 08:25 42.24877 24.54895 36112 ft 464 kts 204°
2026-05-04 08:25 42.18987 24.51274 36115 ft 464 kts 204°
2026-05-04 08:27 41.95427 24.36848 36124 ft 466 kts 205°
2026-05-04 08:28 41.89551 24.33276 36111 ft 467 kts 205°
2026-05-04 08:28 41.83613 24.29679 36111 ft 468 kts 205°
2026-05-04 08:29 41.77662 24.26065 36125 ft 469 kts 205°
2026-05-04 08:31 41.53636 24.12135 36131 ft 474 kts 192°
2026-05-04 08:33 41.30673 24.08199 37146 ft 476 kts 187°
2026-05-04 08:33 41.27407 24.07665 37142 ft 476 kts 187°
2026-05-04 08:35 41.01010 24.03296 37158 ft 478 kts 187°
2026-05-04 08:35 40.94394 24.02235 37166 ft 478 kts 187°
2026-05-04 08:37 40.71273 23.98610 37175 ft 478 kts 187°
2026-05-04 08:38 40.65778 23.97740 37176 ft 478 kts 187°
2026-05-04 08:38 40.59168 23.96685 37183 ft 478 kts 188°
2026-05-04 08:40 40.33097 23.90017 37183 ft 477 kts 191°
2026-05-04 08:41 40.26580 23.88413 37188 ft 477 kts 191°
2026-05-04 08:41 40.20057 23.86797 37191 ft 477 kts 191°
2026-05-04 08:42 40.13579 23.85176 37188 ft 477 kts 192°
2026-05-04 08:42 40.07051 23.83534 37184 ft 476 kts 192°
2026-05-04 08:43 40.00535 23.81903 37184 ft 476 kts 192°
2026-05-04 08:43 39.94015 23.80280 37187 ft 476 kts 192°
2026-05-04 08:44 39.87550 23.78671 37185 ft 476 kts 192°
2026-05-04 08:46 39.61519 23.72235 37168 ft 476 kts 193°
2026-05-04 08:46 39.55004 23.70630 37182 ft 476 kts 193°
2026-05-04 08:47 39.48523 23.69037 37175 ft 476 kts 193°
2026-05-04 08:47 39.42007 23.67432 37181 ft 476 kts 193°
2026-05-04 08:48 39.35484 23.65836 37177 ft 476 kts 193°
2026-05-04 08:48 39.28963 23.64245 37176 ft 476 kts 194°
2026-05-04 08:49 39.22479 23.62664 37172 ft 477 kts 193°
2026-05-04 08:50 39.02806 23.63501 37173 ft 488 kts 167°
2026-05-04 08:50 38.99495 23.64451 37175 ft 488 kts 171°
2026-05-04 08:51 38.92786 23.65690 37184 ft 486 kts 176°
2026-05-04 08:51 38.86041 23.66445 37184 ft 486 kts 177°
2026-05-04 08:52 38.79293 23.67253 37173 ft 488 kts 176°
2026-05-04 08:52 38.72527 23.68248 37141 ft 490 kts 175°
2026-05-04 08:53 38.69140 23.68772 36881 ft 490 kts 175°
2026-05-04 08:54 38.45121 23.72311 33023 ft 504 kts 176°
2026-05-04 08:55 38.41641 23.72817 32410 ft 500 kts 177°
2026-05-04 08:55 38.38190 23.73320 31791 ft 498 kts 177°
2026-05-04 08:55 38.34750 23.73821 31156 ft 496 kts 177°
2026-05-04 08:55 38.31321 23.74322 30528 ft 495 kts 177°
2026-05-04 08:57 38.09457 23.83019 26405 ft 461 kts 144°
2026-05-04 09:01 37.76035 24.12255 19379 ft 380 kts 144°
2026-05-04 09:01 37.73866 24.14141 18889 ft 377 kts 144°
2026-05-04 09:01 37.71714 24.16008 18398 ft 374 kts 144°
2026-05-04 09:01 37.69580 24.17859 17904 ft 370 kts 144°
2026-05-04 09:02 37.67462 24.19673 17436 ft 365 kts 148°
2026-05-04 09:02 37.65145 24.20921 16979 ft 360 kts 167°
2026-05-04 09:02 37.62713 24.21202 16541 ft 353 kts 187°
2026-05-04 09:02 37.60359 24.20528 16114 ft 344 kts 206°
2026-05-04 09:03 37.58334 24.19043 15697 ft 332 kts 224°
2026-05-04 09:03 37.56779 24.16962 15290 ft 321 kts 240°
2026-05-04 09:03 37.55779 24.14510 14899 ft 309 kts 256°
2026-05-04 09:03 37.55355 24.11901 14519 ft 299 kts 271°
2026-05-04 09:04 37.55303 24.09294 14059 ft 298 kts 273°
2026-05-04 09:04 37.55253 24.06685 13593 ft 296 kts 273°
2026-05-04 09:04 37.55193 24.04106 13198 ft 293 kts 272°
2026-05-04 09:04 37.55130 24.01543 12802 ft 291 kts 272°
2026-05-04 09:05 37.55069 23.99031 12414 ft 289 kts 273°
2026-05-04 09:05 37.55008 23.96506 12017 ft 288 kts 273°
2026-05-04 09:05 37.54948 23.93994 11622 ft 286 kts 273°
2026-05-04 09:05 37.54890 23.91489 11221 ft 284 kts 273°
2026-05-04 09:06 37.54833 23.89009 10825 ft 283 kts 273°
2026-05-04 09:07 37.55248 23.72126 7928 ft 257 kts 311°
2026-05-04 09:08 37.56601 23.70833 7340 ft 243 kts 338°
2026-05-04 09:08 37.58229 23.70390 6882 ft 231 kts 357°
2026-05-04 09:08 37.59763 23.70631 6482 ft 221 kts 13°
2026-05-04 09:08 37.61221 23.71150 6087 ft 213 kts 12°
2026-05-04 09:09 37.62647 23.71636 5707 ft 211 kts 12°
2026-05-04 09:09 37.64064 23.72113 5331 ft 209 kts 12°
2026-05-04 09:09 37.65427 23.72571 5237 ft 197 kts 12°
2026-05-04 09:09 37.66713 23.73002 5195 ft 182 kts 12°
2026-05-04 09:10 37.67881 23.73394 5135 ft 166 kts 12°
2026-05-04 09:10 37.68939 23.73749 5061 ft 153 kts 12°
2026-05-04 09:10 37.69951 23.74087 4998 ft 148 kts 11°
2026-05-04 09:10 37.70935 23.74447 4936 ft 148 kts 20°
2026-05-04 09:11 37.71841 23.75075 4896 ft 148 kts 27°
2026-05-04 09:11 37.72710 23.75796 4806 ft 149 kts 30°
2026-05-04 09:11 37.73558 23.76553 4736 ft 149 kts 31°
2026-05-04 09:11 37.74399 23.77328 4623 ft 150 kts 32°
2026-05-04 09:12 37.75238 23.78112 4504 ft 150 kts 32°
2026-05-04 09:12 37.76066 23.78891 4341 ft 151 kts 32°
2026-05-04 09:14 37.81981 23.84482 2934 ft 151 kts 33°
2026-05-04 09:14 37.82823 23.85280 2729 ft 150 kts 33°
2026-05-04 09:14 37.83659 23.86073 2524 ft 150 kts 34°
2026-05-04 09:14 37.84501 23.86870 2314 ft 150 kts 34°
2026-05-04 09:15 37.85301 23.87629 2117 ft 142 kts 33°
2026-05-04 09:15 37.86091 23.88378 1920 ft 139 kts 31°
2026-05-04 09:15 37.86852 23.89099 1743 ft 138 kts 33°
2026-05-04 09:15 37.87623 23.89831 1551 ft 138 kts 33°
2026-05-04 09:17 37.93571 23.95468 280 ft 90 kts 36°
2026-05-04 09:18 37.93926 23.95814 276 ft 40 kts 38°
2026-05-04 09:18 37.94014 23.95899 277 ft 1 kts 37°
2026-05-04 09:18 37.94019 23.95904 281 ft 3 kts 37°
2026-05-04 09:18 37.94040 23.95922 277 ft 5 kts 34°
2026-05-04 09:19 37.94078 23.95950 276 ft 8 kts 26°
2026-05-04 09:19 37.94118 23.95969 276 ft 10 kts 19°
2026-05-04 09:19 37.94208 23.96000 275 ft 9 kts
2026-05-04 09:19 37.94248 23.96007 275 ft 9 kts
2026-05-04 09:20 37.94262 23.96010 275 ft 0 kts
2026-05-04 09:20 37.94266 23.96011 275 ft 2 kts
2026-05-04 09:20 37.94289 23.96011 275 ft 5 kts 355°
2026-05-04 09:21 37.94326 23.95984 275 ft 8 kts 313°
2026-05-04 09:21 37.94350 23.95912 275 ft 9 kts 289°
2026-05-04 09:21 37.94403 23.95864 274 ft 10 kts 353°
2026-05-04 09:21 37.94471 23.95916 274 ft 13 kts 36°
2026-05-04 09:22 37.94554 23.95996 273 ft 16 kts 38°
2026-05-04 09:22 37.94609 23.96082 272 ft 13 kts 89°
2026-05-04 09:22 37.94547 23.96124 272 ft 12 kts 200°
2026-05-04 09:22 37.94476 23.96064 273 ft 13 kts 217°
2026-05-04 09:23 37.94404 23.95995 274 ft 13 kts 217°
2026-05-04 09:23 37.94358 23.95906 274 ft 13 kts 286°
2026-05-04 09:23 37.94358 23.95804 279 ft 10 kts 234°
2026-05-04 09:23 37.94301 23.95754 276 ft 10 kts 215°
2026-05-04 09:25 37.94014 23.95483 278 ft 10 kts 217°
2026-05-04 09:25 37.93952 23.95423 279 ft 13 kts 217°
2026-05-04 09:26 37.93872 23.95345 280 ft 16 kts 218°
2026-05-04 09:26 37.93782 23.95260 281 ft 15 kts 217°
2026-05-04 09:26 37.93703 23.95184 281 ft 12 kts 216°
2026-05-04 09:26 37.93625 23.95112 287 ft 16 kts 216°
2026-05-04 09:27 37.93536 23.95030 283 ft 14 kts 217°
2026-05-04 09:27 37.93465 23.94959 287 ft 8 kts 218°
2026-05-04 09:27 37.93443 23.94892 284 ft 8 kts 288°
2026-05-04 09:27 37.93435 23.94815 286 ft 8 kts 232°
2026-05-04 09:28 37.93447 23.94760 285 ft 6 kts 291°
2026-05-04 09:28 37.93461 23.94709 285 ft 1 kts 304°
2026-05-04 09:28 37.93471 23.94696 285 ft 0 kts 313°